Weather History for Fort Leonard Wood, MO

Change the Weather History Date:

Saturday, May 4, 2013

  Actual Average Record
Temperature  
Mean Temperature 40 °F -  
Max Temperature 47 °F 72 °F 94 °F (2014)
Min Temperature 32 °F 54 °F 32 °F (2013)
Degree Days  
Heating Degree Days 26    
Moisture  
Dew Point 35 °F    
Average Humidity 89    
Maximum Humidity 100    
Minimum Humidity 62    
Precipitation  
Precipitation 0.01 in - - ()
Sea Level Pressure  
Sea Level Pressure 29.89 in    
Wind  
Wind Speed 4 mph (SSE)    
Max Wind Speed 12 mph    
Max Gust Speed -    
Visibility 10 miles    
Events Rain , Snow    
Averages and records for this station are not official NWS values.
T = Trace of Precipitation, MM = Missing Value Source: NWS Daily Summary

Daily Weather History Graph

Daily Weather History Graph

Search for Another Location

Airport:

Trip Planner

Search our weather history database for the weather conditions in past years. The results will help you decide how hot, cold, wet, or windy it might be!

Date:

Astronomy

May. 04, 2013 Rise Set
Actual Time 6:09 AM CDT 8:01 PM CDT
Civil Twilight 5:40 AM CDT 8:30 PM CDT
Nautical Twilight 5:06 AM CDT 9:05 PM CDT
Astronomical Twilight 4:29 AM CDT 9:42 PM CDT
Moon 3:02 AM CDT (5/4) 3:05 PM CDT (5/4)
Length of Visible Light 14h 49m
Length of Day
13h 52m
Waning Crescent, 27% of the Moon is Illuminated
May 4
Waning Crescent
May 9
New
May 17
First Quarter
May 24
Full
May 31
Last Quarter

Hourly Weather History & Observations

Time (CDT) Temp. Windchill Dew Point Humidity Pressure Visibility Wind Dir Wind Speed Gust Speed Precip Events Conditions
12:58 AM 33.6 °F 30.6 °F 33.6 °F 100% 29.88 in 10.0 mi WSW 3.5 mph - N/A   Overcast
1:05 AM 32.0 °F 28.7 °F 32.0 °F 100% 29.85 in 10.0 mi WSW 3.5 mph - N/A   Overcast
1:30 AM 32.0 °F 28.7 °F 32.0 °F 100% 29.84 in 10.0 mi WSW 3.5 mph - N/A   Overcast
1:58 AM 33.6 °F 30.6 °F 33.6 °F 100% 29.88 in 10.0 mi Variable 3.5 mph - 0.00 in   Overcast
2:21 AM 32.0 °F 28.7 °F 32.0 °F 100% 29.83 in 10.0 mi West 3.5 mph - N/A   Overcast
2:37 AM 32.0 °F - 32.0 °F 100% 29.83 in 10.0 mi Variable 2.3 mph - N/A   Overcast
2:42 AM 32.0 °F - 32.0 °F 100% 29.83 in 10.0 mi West 2.3 mph - N/A   Overcast
2:47 AM 32.0 °F 28.7 °F 32.0 °F 100% 29.83 in 10.0 mi SW 3.5 mph - N/A   Overcast
2:57 AM 32.0 °F - 32.0 °F 100% 29.83 in 10.0 mi WSW 2.3 mph - N/A   Overcast
2:58 AM 33.4 °F - 33.4 °F 100% 29.86 in 10.0 mi WSW 2.3 mph - 0.00 in   Overcast
3:13 AM 32.0 °F - 32.0 °F 100% 29.83 in 10.0 mi WSW 2.3 mph - N/A   Overcast
3:28 AM 32.0 °F - 32.0 °F 100% 29.83 in 10.0 mi WSW 2.3 mph - N/A   Overcast
3:33 AM 32.0 °F - 32.0 °F 100% 29.83 in 10.0 mi West 2.3 mph - N/A   Overcast
3:43 AM 32.0 °F - 32.0 °F 100% 29.83 in 10.0 mi NW 1.2 mph - N/A   Overcast
3:53 AM 32.0 °F 28.7 °F 32.0 °F 100% 29.83 in 10.0 mi SSW 3.5 mph - N/A   Overcast
3:58 AM 33.4 °F - 33.4 °F 100% 29.86 in 10.0 mi SSW 2.3 mph - N/A   Overcast
4:58 AM 32.0 °F - 32.0 °F 100% 29.86 in 10.0 mi SW 1.2 mph - N/A   Overcast
5:28 AM 32.0 °F - 32.0 °F 100% 29.83 in 9.0 mi Calm Calm - N/A   Overcast
5:49 AM 33.8 °F - 33.8 °F 100% 29.83 in 10.0 mi ESE 1.2 mph - N/A   Overcast
5:58 AM 33.4 °F - 33.4 °F 100% 29.87 in 7.0 mi SW 2.3 mph - 0.00 in Snow Light Snow
6:13 AM 32.0 °F - 32.0 °F 100% 29.84 in 7.0 mi West 1.2 mph - N/A Snow Light Snow
6:20 AM 32.0 °F - 32.0 °F 100% 29.84 in 10.0 mi NW 1.2 mph - N/A   Overcast
6:38 AM 32.0 °F - 32.0 °F 100% 29.84 in 10.0 mi SE 2.3 mph - N/A Snow Light Snow
6:58 AM 33.6 °F 30.6 °F 33.6 °F 100% 29.88 in 10.0 mi SE 3.5 mph - 0.01 in Rain Light Rain
7:02 AM 33.8 °F 30.8 °F 33.8 °F 100% 29.85 in 10.0 mi SE 3.5 mph - N/A   Overcast
7:07 AM 33.8 °F 30.8 °F 33.8 °F 100% 29.85 in 10.0 mi SE 3.5 mph - N/A   Overcast
7:42 AM 35.6 °F 30.7 °F 35.6 °F 100% 29.86 in 10.0 mi ESE 5.8 mph - N/A   Overcast
7:47 AM 35.6 °F 31.7 °F 35.6 °F 100% 29.86 in 10.0 mi ESE 4.6 mph - N/A   Overcast
7:52 AM 35.6 °F 31.7 °F 35.6 °F 100% 29.86 in 10.0 mi ESE 4.6 mph - N/A   Overcast
7:57 AM 35.6 °F 32.8 °F 35.6 °F 100% 29.86 in 10.0 mi SE 3.5 mph - N/A   Overcast
7:58 AM 35.6 °F 31.7 °F 35.6 °F 100% 29.89 in 10.0 mi SSE 4.6 mph - 0.00 in   Overcast
8:48 AM 35.6 °F - 33.8 °F 93% 29.87 in 10.0 mi ESE 2.3 mph - N/A   Overcast
8:53 AM 35.6 °F 32.8 °F 33.8 °F 93% 29.87 in 10.0 mi Variable 3.5 mph - N/A   Overcast
8:58 AM 36.5 °F - 33.8 °F 90% 29.91 in 10.0 mi SSE 2.3 mph - N/A   Overcast
9:38 AM 39.2 °F 35.0 °F 33.8 °F 81% 29.87 in 10.0 mi Variable 5.8 mph - N/A   Mostly Cloudy
9:58 AM 39.9 °F 35.8 °F 34.5 °F 81% 29.90 in 10.0 mi Variable 5.8 mph - N/A   Overcast
10:08 AM 41.0 °F 36.4 °F 35.6 °F 81% 29.87 in 10.0 mi East 6.9 mph - N/A   Overcast
10:58 AM 41.7 °F 35.6 °F 35.2 °F 78% 29.91 in 10.0 mi East 10.4 mph - N/A   Mostly Cloudy
11:58 AM 42.4 °F - 32.9 °F 69% 29.91 in 10.0 mi Variable 2.3 mph - N/A   Overcast
12:58 PM 45.0 °F 42.6 °F 35.2 °F 69% 29.92 in 10.0 mi Variable 4.6 mph - N/A   Overcast
1:08 PM 44.6 °F 41.4 °F 35.6 °F 71% 29.89 in 10.0 mi ESE 5.8 mph - N/A   Overcast
1:15 PM 42.8 °F 39.3 °F 35.6 °F 76% 29.89 in 10.0 mi Variable 5.8 mph - N/A   Light Drizzle
1:27 PM 42.8 °F 38.0 °F 35.6 °F 76% 29.89 in 10.0 mi SE 8.1 mph - N/A   Overcast
1:42 PM 42.8 °F 39.3 °F 37.4 °F 81% 29.89 in 10.0 mi ESE 5.8 mph - N/A Rain Light Rain
1:52 PM 42.8 °F 39.3 °F 37.4 °F 81% 29.90 in 10.0 mi ESE 5.8 mph - N/A Rain Light Rain
1:53 PM 42.8 °F 41.1 °F 35.6 °F 76% 29.90 in 10.0 mi ESE 3.5 mph - N/A   Overcast
1:58 PM 42.8 °F - 35.6 °F 76% 29.92 in 10.0 mi Variable 1.2 mph - 0.00 in   Overcast
2:08 PM 42.8 °F 39.3 °F 35.6 °F 76% 29.90 in 10.0 mi ESE 5.8 mph - N/A   Overcast
2:24 PM 44.6 °F 40.2 °F 37.4 °F 76% 29.90 in 10.0 mi East 8.1 mph - N/A   Light Drizzle
2:29 PM 42.8 °F 40.1 °F 37.4 °F 81% 29.91 in 10.0 mi NE 4.6 mph - N/A Rain Light Rain
2:38 PM 42.8 °F - 37.4 °F 81% 29.91 in 8.0 mi South 2.3 mph - N/A   Overcast
2:48 PM 44.6 °F - 37.4 °F 76% 29.91 in 10.0 mi Calm Calm - N/A   Overcast
2:58 PM 44.2 °F - 36.5 °F 74% 29.94 in 10.0 mi Variable 1.2 mph - 0.00 in   Overcast
3:18 PM 44.6 °F 38.8 °F 37.4 °F 76% 29.91 in 10.0 mi SSE 11.5 mph - N/A   Overcast
3:23 PM 46.4 °F 42.4 °F 37.4 °F 71% 29.91 in 10.0 mi SSE 8.1 mph - N/A   Overcast
3:38 PM 44.6 °F 42.2 °F 37.4 °F 76% 29.91 in 10.0 mi Variable 4.6 mph - N/A   Overcast
3:58 PM 46.2 °F 43.3 °F 36.1 °F 68% 29.95 in 10.0 mi SE 5.8 mph - N/A   Overcast
4:58 PM 46.9 °F - 35.1 °F 63% 29.95 in 10.0 mi Variable 1.2 mph - N/A   Overcast
5:58 PM 47.1 °F - 34.7 °F 62% 29.96 in 10.0 mi ENE 2.3 mph - N/A   Overcast
6:58 PM 46.6 °F - 36.5 °F 68% 29.96 in 10.0 mi North 3.5 mph - N/A   Overcast
7:58 PM 45.7 °F 44.4 °F 38.3 °F 75% 29.98 in 10.0 mi NNW 3.5 mph - N/A   Overcast
8:39 PM 44.6 °F 43.1 °F 39.2 °F 81% 29.96 in 10.0 mi NNW 3.5 mph - N/A   Light Drizzle
8:49 PM 44.6 °F 41.4 °F 39.2 °F 81% 29.97 in 10.0 mi North 5.8 mph - N/A Rain Light Rain
8:58 PM 44.1 °F 40.8 °F 40.3 °F 87% 30.00 in 10.0 mi North 5.8 mph - 0.00 in Rain Light Rain
9:02 PM 44.6 °F 41.4 °F 41.0 °F 87% 29.97 in 10.0 mi NNW 5.8 mph - N/A   Overcast
9:58 PM 43.2 °F 41.5 °F 42.1 °F 96% 30.01 in 10.0 mi NW 3.5 mph - 0.00 in   Overcast
10:58 PM 42.8 °F 40.1 °F 41.5 °F 95% 30.01 in 10.0 mi NNW 4.6 mph - N/A   Overcast
11:58 PM 40.6 °F - 40.3 °F 99% 30.01 in 10.0 mi NNW 2.3 mph - N/A   Scattered Clouds